Regional Weather Roundup
Issued by NWS Cleveland, OH

Home | Current Version | Previous Version | Text Only | Print | Product List | Glossary Off
Versions: 1 2 3 4 5 6 7 8 9 10 11 12 13 14 15 16 17 18 19 20 21 22 23 24 25 26 27 28 29 30 31 32 33 34 35 36 37 38 39 40 41 42 43 44 45 46 47 48 49 50

000
ASUS41 KCLE 310700
RWRCLE
OHIO REGIONAL WEATHER ROUNDUP
NATIONAL WEATHER SERVICE WILMINGTON, OH
300 AM EDT TUE MAY 31 2016

NOTE: "FAIR" INDICATES FEW OR NO CLOUDS BELOW 12,000 FEET WITH NO
SIGNIFICANT WEATHER AND/OR OBSTRUCTIONS TO VISIBILITY.

OHZ001>008-015>018-024>027-034-035-043-044-310800-
   NORTHWEST OHIO

CITY           SKY/WX    TMP DP  RH WIND       PRES   REMARKS
DEFIANCE       FAIR      64  56  75 CALM      29.99S
FINDLAY        FAIR      65  53  65 CALM      29.97S
TOLEDO EXPRESS FAIR      60  54  80 CALM      29.98S
TOLEDO EXEC    FAIR      66  52  60 CALM      29.99S
LIMA           FAIR      67  54  63 N3        29.99S
$$

OHZ009>014-019>023-028>033-038-089-310800-
   NORTHEAST OHIO

CITY           SKY/WX    TMP DP  RH WIND       PRES   REMARKS
CLE-HOPKINS    FAIR      64  56  75 CALM      29.99S
CLE-LAKEFRONT  FAIR      69  55  60 SE9       29.95S
CUY CO. ARPT   NOT AVBL
LORAIN-ELYRIA  FAIR      63  57  81 CALM      29.98S
ASHTABULA      FAIR      60  57  89 CALM      29.99R
AKRON-CANTON   FAIR      63  53  70 CALM      29.99S
WOOSTER        NOT AVBL
MANSFIELD      FAIR      62  59  90 CALM      29.99S
YOUNGSTOWN     FAIR      56  53  90 SE5       29.99S
$$

OHZ042-051>053-060>062-070>072-077>081-310800-
  SOUTHWEST OHIO

CITY           SKY/WX    TMP DP  RH WIND       PRES   REMARKS
CINC-COVINGTON MOCLDY    66  59  78 S3        29.99F
CINC-LUNKEN    FAIR      64  63  96 CALM      29.98F
HAMILTON       FAIR      63  60  90 CALM      29.99S
DAYTON         NOT AVBL
WRIGHT-PAT AFB NOT AVBL
DAYTON GENERAL MOCLDY    71  53  52 CALM      29.98S
WILMINGTON     FAIR      68  58  70 S5        29.99S
$$

OHZ036-037-039>041-045>050-054>059-063>069-073>076-082>088-310800-
  CENTRAL AND SOUTHEAST OHIO

CITY           SKY/WX    TMP DP  RH WIND       PRES   REMARKS
COLUMBUS       FAIR      65  59  81 CALM      29.97S
OSU AIRPORT    FAIR      65  57  75 CALM      29.98S
BOLTON FIELD   NOT AVBL
RICKENBACK AFB NOT AVBL
NEWARK         FAIR      60  57  89 CALM      29.98S
MARION         FAIR      61  57  87 SE3       29.98F
LANCASTER      FAIR      59  57  93 CALM      29.98S
ZANESVILLE     FAIR      63  58  83 CALM      29.98S
NEW PHILLY     FAIR      63  58  83 CALM      29.99S
$$




USA.gov is the U.S. government's official web portal to all federal, state and local government web resources and services.